GW3883 Weather Reports


time (UTC)temp
C
wind
direction
speed
KPH
gust
KPH
rain 1hr
cm
rain 24hr
cm
rain mn
cm
humidity
%
barometer
mb
20260506100721 14 180 0.0 0.0 0.00 0.00 0.00 93 1017.2
20260506095722 14 180 0.0 0.0 0.00 0.00 0.00 92 1017.0
20260506094722 14 180 0.0 0.0 0.00 0.00 0.00 92 1016.9
20260506093735 14 180 0.0 1.6 0.00 0.00 0.00 92 1016.9
20260506092721 14 180 0.0 1.6 0.00 0.00 0.00 92 1016.9
20260506091719 14 180 0.0 0.0 0.00 0.00 0.00 92 1016.9
20260506090719 14 180 1.6 3.2 0.00 0.00 0.00 91 1016.6
20260506085721 14 180 1.6 3.2 0.00 0.00 0.00 89 1017.0
20260506084720 14 180 0.0 0.0 0.00 0.00 0.00 90 1017.2
20260506083721 14 180 0.0 0.0 0.00 0.00 0.00 89 1017.1
20260506082820 15 180 0.0 1.6 0.00 0.00 0.00 88 1017.0
20260506081819 15 180 0.0 0.0 0.00 0.00 0.00 88 1017.3
20260506080721 15 180 0.0 0.0 0.00 0.00 0.00 88 1017.6
20260506072719 15 180 0.0 0.0 0.00 0.00 0.00 88 1017.1
20260506071720 15 180 1.6 3.2 0.00 0.00 0.00 87 1017.0
20260506070819 15 180 1.6 3.2 0.00 0.00 0.00 87 1016.9
20260506061919 16 225 3.2 6.4 0.00 0.00 0.00 84 1017.7
20260506060922 16 180 3.2 4.8 0.00 0.00 0.00 82 1017.7
20260506051021 16 180 3.2 6.4 0.00 0.00 0.00 82 1017.5
20260506045119 16 180 4.8 6.4 0.00 0.00 0.00 82 1017.9
20260506044121 16 180 6.4 9.7 0.00 0.00 0.00 80 1017.9
20260506043120 16 180 8.0 11.3 0.00 0.00 0.00 81 1018.0
20260506042119 16 180 3.2 3.2 0.00 0.00 0.00 82 1018.2
20260506040120 16 360 0.0 1.6 0.00 0.00 0.00 81 1018.6
20260506035126 16 180 3.2 4.8 0.00 0.00 0.00 80 1018.3
20260506034224 16 180 3.2 4.8 0.00 0.00 0.00 80 1018.1
20260506032226 17 180 1.6 3.2 0.00 0.00 0.00 78 1018.0
20260506030324 17 180 4.8 8.0 0.00 0.00 0.00 77 1018.2
20260506025327 17 180 4.8 6.4 0.00 0.00 0.00 76 1018.1
20260506024328 17 180 3.2 4.8 0.00 0.00 0.00 74 1018.2
20260506023326 18 180 3.2 4.8 0.00 0.00 0.00 74 1018.0
20260506022325 18 180 4.8 6.4 0.00 0.00 0.00 74 1018.2
20260506021327 18 180 6.4 9.7 0.00 0.00 0.00 73 1018.3
20260506020326 18 180 6.4 9.7 0.00 0.00 0.00 73 1018.3
20260506020226 18 180 8.0 9.7 0.00 0.00 0.00 72 1018.3
20260506015226 18 180 6.4 8.0 0.00 0.00 0.00 72 1018.2
20260506014225 18 180 6.4 9.7 0.00 0.00 0.00 72 1017.9
20260506013225 19 180 6.4 9.7 0.00 0.00 0.00 70 1017.9
20260506012227 19 180 9.7 11.3 0.00 0.00 0.00 70 1017.8
20260506012126 19 180 9.7 11.3 0.00 0.00 0.00 70 1017.8
20260506011126 20 179 8.0 9.7 0.00 0.00 0.00 69 1017.6
20260506011024 20 174 6.4 11.3 0.00 0.00 0.00 69 1017.5
20260506005125 20 181 9.7 19.3 0.00 0.00 0.00 68 1017.3
20260506004224 20 202 9.7 11.3 0.00 0.00 0.00 67 1017.5
20260506003226 20 178 9.7 16.1 0.00 0.00 0.00 65 1017.5
20260506002243 21 195 9.7 12.9 0.00 0.00 0.00 64 1017.1
20260506001327 21 180 11.3 14.5 0.00 0.00 0.00 61 1017.2
20260506000425 21 180 9.7 14.5 0.00 0.00 0.00 60 1017.3
20260505235426 21 180 14.5 19.3 0.00 0.00 0.00 59 1017.2
20260505234426 22 185 9.7 14.5 0.00 0.00 0.00 58 1017.3
20260505233424 22 202 11.3 12.9 0.00 0.00 0.00 57 1017.1
20260505232426 22 211 16.1 22.5 0.00 0.00 0.00 54 1017.0
20260505231440 23 204 9.7 12.9 0.00 0.00 0.00 52 1016.9
20260505225525 24 182 9.7 11.3 0.00 0.00 0.00 46 1016.7
20260505224625 24 176 14.5 20.9 0.00 0.00 0.00 46 1016.8
20260505224541 24 180 12.9 17.7 0.00 0.00 0.00 46 1016.7
20260505223524 25 178 12.9 19.3 0.00 0.00 0.00 45 1016.7
20260505221527 25 178 12.9 14.5 0.00 0.00 0.00 46 1016.5
20260505220525 25 207 19.3 24.1 0.00 0.00 0.00 45 1016.5
20260505220427 25 191 19.3 27.4 0.00 0.00 0.00 44 1016.6
20260505214426 25 180 16.1 22.5 0.00 0.00 0.00 44 1016.7
20260505213525 25 165 9.7 19.3 0.00 0.00 0.00 44 1016.7
20260505212541 25 185 14.5 17.7 0.00 0.00 0.00 44 1016.7
20260505211625 26 169 14.5 16.1 0.00 0.00 0.00 44 1016.7
20260505210625 26 191 17.7 20.9 0.00 0.00 0.00 44 1016.8
20260505205725 26 180 14.5 19.3 0.00 0.00 0.00 43 1016.8
20260505204726 26 183 16.1 22.5 0.00 0.00 0.00 43 1016.8
20260505203727 26 170 14.5 22.5 0.00 0.00 0.00 43 1016.6
20260505203624 26 180 16.1 19.3 0.00 0.00 0.00 43 1016.7
20260505202624 26 202 20.9 24.1 0.00 0.00 0.00 45 1016.6
20260505201625 26 141 12.9 19.3 0.00 0.00 0.00 45 1016.5
20260505200641 26 140 12.9 17.7 0.00 0.00 0.00 46 1016.9
20260505195725 26 197 17.7 22.5 0.00 0.00 0.00 45 1017.1
20260505194727 26 144 8.0 11.3 0.00 0.00 0.00 44 1017.1
20260505193824 26 180 12.9 19.3 0.00 0.00 0.00 44 1017.1
20260505192841 26 207 14.5 17.7 0.00 0.00 0.00 42 1017.4
20260505191825 26 198 9.7 14.5 0.00 0.00 0.00 43 1017.8
20260505190924 26 180 14.5 16.1 0.00 0.00 0.00 43 1017.9
20260505184826 26 175 8.0 9.7 0.00 0.00 0.00 43 1018.3
20260505183825 26 217 4.8 11.3 0.00 0.00 0.00 44 1018.3
20260505182825 26 262 1.6 4.8 0.00 0.00 0.00 44 1018.4
20260505181824 25 206 12.9 16.1 0.00 0.00 0.00 45 1018.2
20260505180825 25 214 4.8 8.0 0.00 0.00 0.00 45 1018.0
20260505174924 26 154 12.9 17.7 0.00 0.00 0.00 44 1018.2
20260505173925 25 264 0.0 1.6 0.00 0.00 0.00 45 1018.3
20260505172926 25 223 3.2 8.0 0.00 0.00 0.00 47 1018.5
20260505171925 25 228 4.8 8.0 0.00 0.00 0.00 46 1018.6
20260505170925 25 180 1.6 6.4 0.00 0.00 0.00 45 1018.6
20260505165025 24 217 1.6 4.8 0.00 0.00 0.00 49 1019.0
20260505164941 24 188 8.0 9.7 0.00 0.00 0.00 48 1019.0
20260505163925 24 154 8.0 11.3 0.00 0.00 0.00 49 1019.2
20260505161926 24 180 9.7 12.9 0.00 0.00 0.00 48 1019.6
20260505161025 23 197 12.9 14.5 0.00 0.00 0.00 51 1019.5
20260505153124 23 180 9.7 11.3 0.00 0.00 0.00 55 1019.8
20260505151224 22 180 6.4 8.0 0.00 0.00 0.00 59 1019.7
20260505150227 22 183 11.3 14.5 0.00 0.00 0.00 59 1019.7
20260505150127 22 175 6.4 12.9 0.00 0.00 0.00 59 1019.6
20260505140324 21 181 8.0 11.3 0.00 0.00 0.00 66 1019.6
20260505124423 16 205 3.2 3.2 0.00 0.00 0.00 90 1019.6
20260505123424 14 180 3.2 4.8 0.00 0.00 0.00 94 1019.5
20260505122424 13 180 3.2 3.2 0.00 0.00 0.00 96 1019.6
20260505121523 12 180 0.0 0.0 0.00 0.00 0.00 96 1019.5
20260505120524 11 180 0.0 0.0 0.00 0.00 0.00 97 1019.5
20260505115525 11 180 0.0 0.0 0.00 0.00 0.00 97 1019.3
20260505114525 10 180 0.0 0.0 0.00 0.00 0.00 96 1019.1
20260505113525 10 180 0.0 0.0 0.00 0.00 0.00 96 1019.1
20260505112525 9 180 0.0 0.0 0.00 0.00 0.00 96 1018.9
20260505111524 9 180 0.0 0.0 0.00 0.00 0.00 95 1018.8
20260505110525 9 180 0.0 0.0 0.00 0.00 0.00 95 1018.8